{"data":{"norad_id":32289,"epoch":"2026-05-25T04:06:56.038752Z","epoch_age_seconds":56675,"freshness":"FRESH","line1":"1 32289U 07055A   26145.17148193  .00002129  00000+0  22279-3 0  9991","line2":"2 32289  97.8170 175.2773 0001889  97.2503 262.8930 14.90677822  2448","mean_motion":14.90677822,"eccentricity":0.0001889,"inclination_deg":97.817,"raan_deg":175.2773,"arg_perigee_deg":97.2503,"mean_anomaly_deg":262.893,"bstar":0.00022279,"rev_number":244,"period_min":96.600350441116,"perigee_km":594.50341050903,"apogee_km":597.13817176252,"semimajor_km":6973.9577911358,"source":"CELESTRAK","updated_at":"2026-05-25T13:38:12.745133Z"}}